PST,Max TemperatureF,Mean TemperatureF,Min TemperatureF,Max Dew PointF,MeanDew PointF,Min DewpointF,Max Humidity, Mean Humidity, Min Humidity, Max Sea Level PressureIn, Mean Sea Level PressureIn, Min Sea Level PressureIn, Max VisibilityMiles, Mean VisibilityMiles, Min VisibilityMiles, Max Wind SpeedMPH, Mean Wind SpeedMPH, Max Gust SpeedMPH,PrecipitationIn, CloudCover, Events, WindDirDegrees
2012-11-1,59,55,51,54,52,50,100,92,72,30.04,29.85,29.71,10,8,2,15,5,,0.45,8,Rain,144
2012-11-2,57,52,48,54,51,48,100,95,77,30.04,30.00,29.96,10,8,1,7,2,,0.24,6,Rain,328
2012-11-3,60,56,51,55,53,52,100,95,75,30.19,30.04,29.96,10,10,6,17,3,22,0.01,8,Rain,147
2012-11-4,65,60,54,61,57,54,100,91,73,30.27,30.23,30.18,10,9,1,14,4,21,0.06,8,Rain,167
2012-11-5,59,51,43,57,51,40,100,87,48,30.40,30.33,30.18,10,8,1,13,7,16,0.02,5,,324
2012-11-6,57,48,40,52,46,39,100,94,81,30.16,30.04,29.98,10,6,0,12,4,,0.02,6,Fog,154
2012-11-7,52,44,36,45,40,36,100,82,58,30.16,30.08,29.94,10,10,6,10,7,,0.02,3,Rain,165
2012-11-8,49,39,29,39,34,29,100,91,59,29.94,29.86,29.81,10,9,2,13,3,17,0.00,3,,74
2012-11-9,47,36,26,35,29,25,100,84,55,29.97,29.91,29.87,10,10,10,8,3,,0.00,1,,104
2012-11-10,44,34,23,33,26,21,94,80,44,30.23,30.12,29.98,10,10,10,8,4,,0.00,1,,115
2012-11-11,44,37,30,43,38,28,97,88,77,30.23,30.15,30.06,10,10,5,9,2,,0.65,7,Rain,112
2012-11-12,53,48,44,47,45,43,100,92,77,30.23,30.13,30.06,10,9,4,15,5,21,0.04,8,Rain,133
2012-11-13,51,48,45,50,47,45,100,96,87,30.23,30.18,30.13,10,9,5,6,4,,0.14,7,,141
2012-11-14,50,42,33,49,44,32,100,97,80,30.32,30.26,30.18,10,7,0,8,4,,0.00,5,Fog,175
2012-11-15,43,38,33,41,38,32,100,98,90,30.26,30.09,29.94,10,4,0,9,3,,0.01,8,Fog,107
2012-11-16,45,38,32,45,40,32,100,98,92,29.96,29.83,29.68,10,6,0,8,4,,0.12,7,Fog,115
2012-11-17,55,48,41,48,44,39,100,94,68,29.73,29.60,29.50,10,9,2,18,6,25,0.22,7,Rain,187
2012-11-18,50,46,41,45,42,39,93,85,68,29.76,29.63,29.51,10,10,8,21,11,31,0.20,7,Rain,135
2012-11-19,56,50,43,52,48,43,100,88,72,29.69,29.50,29.35,10,7,1,30,15,40,1.70,6,Rain,152
2012-11-20,53,46,39,48,42,38,100,92,70,29.69,29.63,29.53,10,6,0,18,4,29,0.11,4,Fog-Rain,127
2012-11-21,48,42,34,41,40,34,98,86,71,30.31,29.83,29.52,10,10,5,29,10,40,0.18,6,Rain,172
2012-11-22,45,38,31,41,37,31,100,94,76,30.37,30.31,30.23,10,10,10,9,4,,0.01,5,,147
2012-11-23,50,46,41,50,46,41,100,98,93,30.22,30.09,30.03,10,8,2,15,4,,0.56,7,Rain,132
2012-11-24,46,40,35,46,40,36,100,97,87,30.28,30.23,30.17,10,4,0,9,4,,0.01,5,Fog,159
2012-11-25,44,39,34,43,39,34,100,96,76,30.35,30.29,30.20,10,4,0,13,2,,0.00,7,Fog,6
2012-11-26,46,38,30,37,33,30,100,97,67,30.22,30.13,30.06,10,5,0,6,2,,0.00,5,Fog,68
2012-11-27,46,38,29,40,34,29,100,94,69,30.10,30.01,29.88,10,8,0,7,3,,0.00,4,Fog,127
2012-11-28,42,37,32,43,37,32,100,99,93,29.89,29.73,29.59,10,3,0,8,3,,0.05,7,Fog,125
2012-11-29,55,46,37,48,43,37,100,83,66,29.69,29.57,29.45,10,10,9,20,5,29,0.12,5,Rain,132
2012-11-30,57,50,43,50,47,43,100,90,62,29.48,29.42,29.37,10,8,2,22,7,33,1.17,7,Rain,157